Radiation Dose at Monitoring Post of Fukushima Daini Nuclear Power Station
Date,Time,MP-1(microSv/h),MP-2(microSv/h),MP-3(microSv/h),MP-4(microSv/h),MP-5(microSv/h),MP-6(microSv/h),MP-7(microSv/h),Wind Direction,Wind Velocity(m/s),Rain
2014/11/14,00:00,0.619,0.393,0.649,0.589,0.586,0.271,0.238,west-southwest,5.9,No
2014/11/14,00:10,0.618,0.395,0.652,0.588,0.585,0.272,0.237,west-southwest,4.8,No
2014/11/14,00:20,0.620,0.394,0.653,0.587,0.585,0.271,0.238,west-southwest,4.3,No
2014/11/14,00:30,0.620,0.392,0.650,0.588,0.587,0.270,0.238,west,4.7,No
2014/11/14,00:40,0.619,0.394,0.650,0.586,0.584,0.272,0.238,west,4.2,No
2014/11/14,00:50,0.620,0.395,0.652,0.588,0.587,0.272,0.238,west-southwest,3.9,No
2014/11/14,01:00,0.620,0.394,0.651,0.587,0.588,0.271,0.238,southwest,3.1,No
2014/11/14,01:10,0.619,0.393,0.651,0.587,0.585,0.271,0.237,southwest,2.4,No
2014/11/14,01:20,0.619,0.394,0.649,0.587,0.585,0.271,0.239,west-southwest,2.2,No
2014/11/14,01:30,0.621,0.394,0.651,0.589,0.585,0.271,0.237,west,3.1,No
2014/11/14,01:40,0.619,0.395,0.651,0.587,0.586,0.271,0.238,west-southwest,3.8,No
2014/11/14,01:50,0.618,0.395,0.651,0.589,0.586,0.271,0.237,west-southwest,4.1,No
2014/11/14,02:00,0.620,0.395,0.652,0.588,0.586,0.271,0.238,southwest,2.5,No
2014/11/14,02:10,0.619,0.394,0.651,0.589,0.587,0.272,0.238,west-southwest,2.8,No
2014/11/14,02:20,0.620,0.394,0.650,0.589,0.585,0.271,0.238,west-southwest,4.7,No
2014/11/14,02:30,0.621,0.395,0.651,0.589,0.584,0.271,0.238,west-southwest,3.9,No
2014/11/14,02:40,0.620,0.395,0.649,0.588,0.585,0.272,0.238,west-southwest,3.3,No
2014/11/14,02:50,0.618,0.395,0.650,0.589,0.586,0.271,0.239,west-southwest,3.6,No
2014/11/14,03:00,0.620,0.395,0.652,0.588,0.587,0.271,0.238,west-southwest,6.2,No
2014/11/14,03:10,0.619,0.394,0.650,0.589,0.584,0.272,0.239,west,5.4,No
2014/11/14,03:20,0.620,0.396,0.651,0.589,0.585,0.272,0.239,west,5.3,No
2014/11/14,03:30,0.619,0.394,0.653,0.589,0.586,0.270,0.238,west,3.4,No
2014/11/14,03:40,0.618,0.395,0.651,0.589,0.586,0.272,0.237,west,3.0,No
2014/11/14,03:50,0.619,0.394,0.652,0.589,0.586,0.271,0.237,west,2.9,No
2014/11/14,04:00,0.619,0.394,0.654,0.587,0.586,0.272,0.238,west-southwest,2.4,No
2014/11/14,04:10,0.619,0.395,0.651,0.589,0.586,0.271,0.239,west,3.9,No
2014/11/14,04:20,0.620,0.394,0.651,0.588,0.587,0.271,0.237,west-southwest,2.3,No
2014/11/14,04:30,0.618,0.394,0.650,0.589,0.586,0.271,0.237,west-southwest,2.8,No
2014/11/14,04:40,0.618,0.393,0.651,0.589,0.585,0.272,0.238,west-southwest,3.9,No
2014/11/14,04:50,0.622,0.392,0.651,0.587,0.586,0.271,0.237,west-southwest,6.9,No
2014/11/14,05:00,0.620,0.395,0.651,0.589,0.587,0.271,0.237,west-southwest,7.2,No
2014/11/14,05:10,0.619,0.393,0.651,0.588,0.585,0.271,0.239,west-southwest,7.0,No
2014/11/14,05:20,0.619,0.393,0.651,0.587,0.587,0.271,0.237,west-southwest,7.5,No
2014/11/14,05:30,0.620,0.393,0.649,0.588,0.585,0.271,0.238,west-southwest,6.5,No
2014/11/14,05:40,0.621,0.395,0.651,0.589,0.587,0.271,0.237,west-southwest,6.9,No
2014/11/14,05:50,0.620,0.394,0.651,0.588,0.586,0.272,0.237,west-southwest,6.7,No
2014/11/14,06:00,0.619,0.394,0.651,0.588,0.586,0.271,0.237,west-southwest,5.0,No
2014/11/14,06:10,0.620,0.395,0.650,0.588,0.585,0.271,0.238,west-southwest,4.7,No
2014/11/14,06:20,0.620,0.396,0.650,0.589,0.586,0.272,0.238,west-southwest,4.2,No
2014/11/14,06:30,0.619,0.394,0.652,0.589,0.586,0.272,0.237,southwest,2.2,No
2014/11/14,06:40,0.621,0.394,0.650,0.589,0.586,0.272,0.236,west-southwest,3.4,No
2014/11/14,06:50,0.619,0.393,0.653,0.588,0.585,0.270,0.238,southwest,3.7,No
2014/11/14,07:00,0.619,0.395,0.653,0.589,0.587,0.272,0.237,southwest,2.5,No
2014/11/14,07:10,0.620,0.394,0.652,0.589,0.587,0.272,0.238,southwest,3.3,No
2014/11/14,07:20,0.618,0.393,0.651,0.590,0.586,0.272,0.237,southwest,3.6,No
2014/11/14,07:30,0.619,0.395,0.652,0.589,0.586,0.270,0.237,southwest,4.6,No
2014/11/14,07:40,0.621,0.394,0.652,0.589,0.587,0.272,0.235,southwest,5.3,No
2014/11/14,07:50,0.620,0.395,0.651,0.590,0.587,0.271,0.237,west-southwest,5.1,No
2014/11/14,08:00,0.621,0.393,0.652,0.589,0.586,0.271,0.237,southwest,6.0,No
2014/11/14,08:10,0.620,0.395,0.653,0.590,0.586,0.272,0.236,southwest,4.5,No
2014/11/14,08:20,0.621,0.395,0.651,0.591,0.586,0.272,0.237,south,2.4,No
2014/11/14,08:30,0.620,0.393,0.651,0.592,0.586,0.272,0.236,south-southwest,3.1,No
2014/11/14,08:40,0.622,0.393,0.654,0.591,0.586,0.272,0.237,south-southwest,3.1,No
2014/11/14,08:50,0.621,0.395,0.652,0.592,0.587,0.271,0.236,south-southwest,3.3,No
2014/11/14,09:00,0.621,0.396,0.653,0.591,0.586,0.271,0.236,southwest,2.8,No
2014/11/14,09:10,0.621,0.394,0.652,0.590,0.586,0.272,0.237,southwest,1.8,No
2014/11/14,09:20,0.621,0.395,0.652,0.592,0.588,0.272,0.235,west-southwest,5.0,No
2014/11/14,09:30,0.621,0.394,0.652,0.594,0.586,0.270,0.237,southwest,3.4,No
2014/11/14,09:40,0.620,0.394,0.655,0.592,0.588,0.273,0.235,southwest,4.8,No
2014/11/14,09:50,0.623,0.394,0.652,0.593,0.587,0.271,0.238,south-southwest,4.2,No
2014/11/14,10:00,0.620,0.394,0.652,0.595,0.585,0.271,0.238,southwest,5.8,No
2014/11/14,10:10,0.623,0.396,0.654,0.594,0.587,0.272,0.237,southwest,2.8,No
2014/11/14,10:20,0.621,0.396,0.653,0.594,0.588,0.272,0.238,west-southwest,6.0,No
2014/11/14,10:30,0.622,0.395,0.652,0.597,0.590,0.271,0.236,west-southwest,4.9,No
2014/11/14,10:40,0.623,0.397,0.655,0.595,0.590,0.271,0.236,southwest,7.6,No
2014/11/14,10:50,0.624,0.397,0.655,0.595,0.590,0.271,0.239,west-southwest,5.6,No
2014/11/14,11:00,0.624,0.397,0.654,0.598,0.592,0.272,0.237,southwest,5.1,No
2014/11/14,11:10,0.625,0.397,0.654,0.598,0.591,0.271,0.238,southwest,5.8,No
2014/11/14,11:20,0.624,0.398,0.651,0.597,0.592,0.273,0.238,southwest,4.3,No
2014/11/14,11:30,0.624,0.399,0.654,0.599,0.591,0.271,0.237,southwest,2.8,No
2014/11/14,11:40,0.625,0.400,0.653,0.601,0.592,0.272,0.238,west-southwest,3.4,No
2014/11/14,11:50,0.625,0.400,0.653,0.599,0.591,0.271,0.237,southwest,2.4,No
2014/11/14,12:00,0.627,0.399,0.655,0.600,0.591,0.273,0.239,west-southwest,5.0,No
2014/11/14,12:10,0.626,0.400,0.656,0.599,0.589,0.273,0.238,west,3.7,No
2014/11/14,12:20,0.626,0.399,0.652,0.602,0.591,0.272,0.239,west-southwest,3.5,No
2014/11/14,12:30,0.626,0.397,0.657,0.601,0.589,0.272,0.239,west-southwest,4.5,No
2014/11/14,12:40,0.625,0.399,0.656,0.600,0.589,0.271,0.238,west-southwest,3.9,No
2014/11/14,12:50,0.627,0.397,0.656,0.601,0.590,0.273,0.239,west-southwest,2.6,No
2014/11/14,13:00,0.630,0.398,0.656,0.601,0.591,0.273,0.239,west-southwest,3.3,No
2014/11/14,13:10,0.629,0.399,0.657,0.605,0.590,0.273,0.238,west-northwest,3.9,No
2014/11/14,13:20,0.629,0.399,0.657,0.605,0.590,0.271,0.239,northwest,3.2,No
2014/11/14,13:30,0.624,0.399,0.656,0.605,0.590,0.273,0.238,northwest,3.1,No
2014/11/14,13:40,0.622,0.398,0.657,0.604,0.589,0.271,0.239,west-northwest,6.7,No
2014/11/14,13:50,0.624,0.399,0.656,0.603,0.585,0.273,0.238,west-northwest,6.2,No
2014/11/14,14:00,0.623,0.398,0.656,0.604,0.587,0.270,0.239,west-northwest,3.9,No
2014/11/14,14:10,0.620,0.397,0.655,0.603,0.587,0.274,0.238,west-northwest,5.3,No
2014/11/14,14:20,0.620,0.397,0.653,0.603,0.588,0.271,0.238,west-northwest,5.5,No
2014/11/14,14:30,0.622,0.396,0.654,0.599,0.587,0.271,0.238,west-northwest,7.7,No
2014/11/14,14:40,0.622,0.399,0.653,0.600,0.587,0.271,0.239,west-northwest,6.1,No
2014/11/14,14:50,0.621,0.396,0.652,0.598,0.587,0.270,0.239,west-northwest,5.5,No
2014/11/14,15:00,0.621,0.397,0.654,0.595,0.584,0.271,0.238,northwest,4.9,No
2014/11/14,15:10,0.620,0.397,0.653,0.594,0.585,0.270,0.239,west-northwest,7.2,No
2014/11/14,15:20,0.622,0.395,0.653,0.596,0.585,0.272,0.238,west,7.3,No
2014/11/14,15:30,0.619,0.395,0.656,0.593,0.585,0.272,0.238,west-northwest,6.6,No
2014/11/14,15:40,0.621,0.393,0.654,0.591,0.583,0.273,0.240,west-northwest,6.9,No
2014/11/14,15:50,0.621,0.393,0.652,0.590,0.586,0.274,0.239,west,9.9,No
2014/11/14,16:00,0.620,0.395,0.652,0.588,0.586,0.273,0.240,west-northwest,7.2,No
2014/11/14,16:10,0.621,0.395,0.652,0.588,0.586,0.271,0.239,west-northwest,6.4,No
2014/11/14,16:20,0.621,0.396,0.654,0.587,0.586,0.273,0.239,west-northwest,5.2,No
2014/11/14,16:30,0.623,0.394,0.652,0.588,0.586,0.272,0.238,west-northwest,5.3,No
2014/11/14,16:40,0.621,0.395,0.653,0.590,0.586,0.272,0.239,west-northwest,8.8,No
2014/11/14,16:50,0.621,0.394,0.654,0.589,0.585,0.273,0.239,west-northwest,7.9,No
2014/11/14,17:00,0.622,0.396,0.654,0.590,0.586,0.273,0.238,west-northwest,5.8,No
2014/11/14,17:10,0.623,0.394,0.655,0.589,0.586,0.273,0.239,northwest,5.0,No
2014/11/14,17:20,0.623,0.396,0.654,0.592,0.587,0.272,0.239,north,7.1,No
2014/11/14,17:30,0.623,0.396,0.655,0.590,0.586,0.272,0.240,north-northwest,7.8,No
2014/11/14,17:40,0.623,0.396,0.654,0.591,0.587,0.273,0.239,north-northwest,5.1,No
2014/11/14,17:50,0.622,0.395,0.654,0.590,0.586,0.272,0.240,north-northwest,3.3,No
2014/11/14,18:00,0.623,0.397,0.655,0.590,0.588,0.272,0.240,north-northwest,3.6,No
2014/11/14,18:10,0.623,0.395,0.655,0.592,0.587,0.273,0.239,north-northwest,4.7,No
2014/11/14,18:20,0.623,0.395,0.653,0.591,0.587,0.272,0.240,north-northwest,3.6,No
2014/11/14,18:30,0.624,0.397,0.654,0.590,0.587,0.273,0.239,north-northwest,2.3,No
2014/11/14,18:40,0.621,0.396,0.655,0.590,0.585,0.273,0.239,north,2.4,No
2014/11/14,18:50,0.623,0.396,0.654,0.590,0.588,0.272,0.238,north,4.6,No
2014/11/14,19:00,0.622,0.395,0.654,0.591,0.587,0.274,0.239,north,4.0,No
2014/11/14,19:10,0.622,0.397,0.654,0.592,0.587,0.272,0.239,north-northwest,3.4,No
2014/11/14,19:20,0.622,0.396,0.654,0.593,0.588,0.272,0.240,northwest,2.4,No
2014/11/14,19:30,0.624,0.395,0.653,0.590,0.586,0.272,0.240,north,2.9,Yes
2014/11/14,19:40,0.620,0.396,0.652,0.590,0.587,0.271,0.238,north,2.5,No
2014/11/14,19:50,0.622,0.394,0.653,0.590,0.587,0.273,0.239,north,2.7,No
2014/11/14,20:00,0.623,0.395,0.656,0.590,0.587,0.273,0.240,northwest,1.2,No
2014/11/14,20:10,0.622,0.395,0.654,0.591,0.588,0.273,0.240,west,1.7,No
2014/11/14,20:20,0.622,0.394,0.654,0.591,0.587,0.273,0.239,west,3.0,No
2014/11/14,20:30,0.624,0.395,0.652,0.590,0.586,0.273,0.238,northwest,0.6,No
2014/11/14,20:40,0.623,0.394,0.654,0.591,0.587,0.271,0.239,north,1.2,No
2014/11/14,20:50,0.619,0.394,0.654,0.591,0.587,0.274,0.239,west,1.1,No
2014/11/14,21:00,0.621,0.395,0.652,0.591,0.585,0.274,0.240,northwest,0.9,No
2014/11/14,21:10,0.621,0.395,0.654,0.591,0.586,0.273,0.238,northwest,2.4,No
2014/11/14,21:20,0.622,0.394,0.653,0.591,0.586,0.273,0.240,west,5.0,No
2014/11/14,21:30,0.621,0.394,0.654,0.588,0.585,0.273,0.240,west,4.7,No
2014/11/14,21:40,0.622,0.395,0.652,0.590,0.586,0.273,0.239,west,3.1,No
2014/11/14,21:50,0.622,0.393,0.652,0.591,0.587,0.273,0.240,southwest,2.5,No
2014/11/14,22:00,0.622,0.395,0.653,0.592,0.588,0.272,0.240,west,3.5,No
2014/11/14,22:10,0.622,0.393,0.654,0.590,0.587,0.272,0.239,west-northwest,3.0,No
2014/11/14,22:20,0.620,0.396,0.654,0.592,0.587,0.273,0.240,west,4.0,No
2014/11/14,22:30,0.622,0.394,0.652,0.590,0.587,0.272,0.239,west,5.4,No
2014/11/14,22:40,0.621,0.392,0.655,0.591,0.587,0.272,0.240,west-southwest,2.8,No
2014/11/14,22:50,0.622,0.395,0.653,0.592,0.588,0.272,0.239,west,3.1,No
2014/11/14,23:00,0.621,0.397,0.653,0.591,0.588,0.273,0.240,west,2.4,No
2014/11/14,23:10,0.621,0.396,0.654,0.590,0.586,0.274,0.240,west-northwest,1.8,No
2014/11/14,23:20,0.621,0.395,0.656,0.591,0.588,0.270,0.240,west,1.9,No
2014/11/14,23:30,0.622,0.395,0.655,0.592,0.586,0.272,0.238,west,2.2,No
2014/11/14,23:40,0.623,0.395,0.656,0.590,0.586,0.273,0.240,west,1.9,No
2014/11/14,23:50,0.621,0.395,0.653,0.591,0.587,0.272,0.239,southwest,3.9,No
